COSMOS 2556 (52713 NORAD) Tracking and Keplerian Element Data

This shows tracking and keplerian element data for the satellite.

Feedback or suggestion? Click here.




ElementValue
Catalog52713
NameCOSMOS 2556
Epoch Orbit19946
Epoch Day354.29986795
Epoch Year2025
RAAN295.6685
Inclination97.6098
Eccentricity0.0002153
Argument of Perigee62.9727
Mean Anonmoly297.173
Mean Motion15.2499351
Decay Rate2.225E-05
L11 52713U 22054A 25354.29986795 .00002225 00000+0 92223-4 0 9997
L22 52713 97.6098 295.6685 0002153 62.9727 297.1730 15.24993510199461



Live tracking and technical data element details for COSMOS 2556 (NORAD 52713). COSMOS 2556 can be tracked NOW for your location showing map with azimuth and elevation plus other details from your city location.







IsCatalogInMostPopularTable: catalog: 52713, numindb: 1165
Update: records affected: 1



GetName: 52713 COSMOS 2556

Hit Count: updated at: Fri, 16 Jan 2026 10:18:01 GMT